When you browse on this site, cookies collect data to enhance your experience and personalize the content and advertising you see.
Visit our Privacy Policy to learn more. By continuing to use the site, you agree to this use of cookies and data.
  • In Hungary
  • List of Countries
  • For 7 days
  • Water Temperature
  • Satellite Maps
  • Weather Map
  • News
  • Weather Widgets
  • user-avatar
    Login

    Hourly Weather Lleida

    Today, 18 January, Friday

    Time Temperature Precipitation Wind Pressure Humidity
    00:00 +5°C° 0 mm 1 mps 749 mmHg 81%
    01:00 +5°C° 0 mm 1 mps 748 mmHg 82%
    02:00 +4°C° 0 mm 1 mps 748 mmHg 84%
    03:00 +4°C° 0 mm 1 mps 748 mmHg 85%
    04:00 +4°C° 0 mm 1 mps 748 mmHg 86%
    05:00 +3°C° 0 mm 1 mps 748 mmHg 88%
    06:00 +3°C° 0 mm 1 mps 748 mmHg 89%
    07:00 +3°C° 0 mm 1 mps 748 mmHg 86%
    08:00 +4°C° 0 mm 1 mps 748 mmHg 83%
    09:00 +5°C° 0 mm 1 mps 748 mmHg 80%
    10:00 +6°C° 0 mm 1 mps 748 mmHg 74%
    11:00 +6°C° 0 mm 2 mps 747 mmHg 68%
    12:00 +8°C° 0 mm 2 mps 747 mmHg 62%
    13:00 +8°C° 0 mm 2 mps 747 mmHg 60%
    14:00 +8°C° 0 mm 2 mps 747 mmHg 57%
    15:00 +9°C° 0 mm 2 mps 746 mmHg 55%
    16:00 +8°C° 0 mm 2 mps 746 mmHg 60%
    17:00 +8°C° 0 mm 1 mps 746 mmHg 64%
    18:00 +6°C° 0 mm 0 mps 746 mmHg 68%
    19:00 +6°C° 0 mm 1 mps 746 mmHg 71%
    20:00 +5°C° 0 mm 1 mps 747 mmHg 74%
    21:00 +5°C° 0 mm 1 mps 747 mmHg 77%
    22:00 +4°C° 0 mm 1 mps 747 mmHg 78%
    23:00 +3°C° 0 mm 0 mps 747 mmHg 79%

    Tomorrow, 19 January, Saturday

    Time Temperature Precipitation Wind Pressure Humidity
    00:00 +3°C° 0 mm 0 mps 747 mmHg 80%
    01:00 +3°C° 0 mm 0 mps 746 mmHg 81%
    02:00 +2°C° 0 mm 0 mps 746 mmHg 82%
    03:00 +2°C° 0 mm 0 mps 746 mmHg 83%
    04:00 +2°C° 0 mm 0 mps 746 mmHg 83%
    05:00 +2°C° 0 mm 0 mps 746 mmHg 84%
    06:00 +1°C° 0 mm 0 mps 746 mmHg 84%
    07:00 +2°C° 0 mm 0 mps 746 mmHg 80%
    08:00 +3°C° 0 mm 0 mps 746 mmHg 75%
    09:00 +4°C° 0 mm 0 mps 746 mmHg 71%
    10:00 +7°C° 0 mm 1 mps 746 mmHg 66%
    11:00 +8°C° 0 mm 1 mps 745 mmHg 62%
    12:00 +9°C° 0 mm 1 mps 745 mmHg 57%
    13:00 +9°C° 0 mm 1 mps 744 mmHg 56%
    14:00 +10°C° 0 mm 1 mps 744 mmHg 55%
    15:00 +10°C° 0 mm 1 mps 743 mmHg 54%
    16:00 +10°C° 0 mm 1 mps 743 mmHg 57%
    17:00 +9°C° 0 mm 1 mps 743 mmHg 61%
    18:00 +8°C° 0 mm 1 mps 742 mmHg 65%
    19:00 +7°C° 0.1 mm 2 mps 742 mmHg 67%
    20:00 +7°C° 0.1 mm 2 mps 742 mmHg 69%
    21:00 +7°C° 0.1 mm 2 mps 742 mmHg 72%
    22:00 +7°C° 0 mm 2 mps 741 mmHg 73%
    23:00 +7°C° 0 mm 2 mps 741 mmHg 75%

    Day after tomorrow, 20 January, Sunday

    Time Temperature Precipitation Wind Pressure Humidity
    00:00 +7°C° 0 mm 2 mps 741 mmHg 77%
    01:00 +6°C° 0 mm 2 mps 740 mmHg 78%
    02:00 +6°C° 0 mm 2 mps 740 mmHg 78%
    03:00 +6°C° 0 mm 2 mps 740 mmHg 79%
    04:00 +5°C° 0 mm 2 mps 740 mmHg 80%
    05:00 +5°C° 0 mm 2 mps 740 mmHg 81%
    06:00 +4°C° 0 mm 2 mps 740 mmHg 81%
    07:00 +5°C° 0 mm 2 mps 741 mmHg 80%
    08:00 +5°C° 0 mm 2 mps 741 mmHg 79%
    09:00 +6°C° 0 mm 2 mps 742 mmHg 78%
    10:00 +7°C° 0 mm 2 mps 742 mmHg 74%
    11:00 +9°C° 0 mm 1 mps 742 mmHg 70%
    12:00 +10°C° 0 mm 1 mps 742 mmHg 66%
    13:00 +11°C° 0 mm 1 mps 743 mmHg 63%
    14:00 +10°C° 0 mm 2 mps 743 mmHg 61%
    15:00 +12°C° 0 mm 2 mps 743 mmHg 58%
    16:00 +11°C° 0 mm 1 mps 743 mmHg 63%
    17:00 +9°C° 0 mm 1 mps 744 mmHg 68%
    18:00 +8°C° 0 mm 1 mps 744 mmHg 73%
    19:00 +8°C° 0 mm 1 mps 745 mmHg 73%
    20:00 +7°C° 0 mm 1 mps 746 mmHg 73%
    21:00 +7°C° 0 mm 1 mps 746 mmHg 73%
    22:00 +6°C° 0 mm 1 mps 746 mmHg 74%
    23:00 +6°C° 0 mm 1 mps 747 mmHg 74%

    21 January, Monday

    Time Temperature Precipitation Wind Pressure Humidity
    00:00 +5°C° 0 mm 1 mps 747 mmHg 75%
    01:00 +5°C° 0 mm 1 mps 747 mmHg 76%
    02:00 +4°C° 0 mm 1 mps 747 mmHg 77%
    03:00 +3°C° 0 mm 0 mps 747 mmHg 77%
    04:00 +3°C° 0 mm 0 mps 747 mmHg 78%
    05:00 +2°C° 0 mm 0 mps 747 mmHg 79%
    06:00 +2°C° 0 mm 0 mps 748 mmHg 79%
    07:00 +4°C° 0 mm 1 mps 748 mmHg 76%
    08:00 +5°C° 0 mm 1 mps 748 mmHg 72%
    09:00 +6°C° 0 mm 1 mps 749 mmHg 69%
    10:00 +8°C° 0 mm 1 mps 749 mmHg 62%
    11:00 +9°C° 0 mm 1 mps 749 mmHg 55%
    12:00 +10°C° 0 mm 2 mps 749 mmHg 48%
    13:00 +12°C° 0 mm 2 mps 749 mmHg 45%
    14:00 +13°C° 0 mm 2 mps 749 mmHg 42%
    15:00 +13°C° 0 mm 2 mps 749 mmHg 40%
    16:00 +12°C° 0 mm 2 mps 749 mmHg 44%
    17:00 +9°C° 0 mm 2 mps 750 mmHg 48%
    18:00 +7°C° 0 mm 2 mps 750 mmHg 52%
    19:00 +6°C° 0 mm 2 mps 751 mmHg 53%
    20:00 +5°C° 0 mm 2 mps 751 mmHg 54%
    21:00 +4°C° 0 mm 2 mps 752 mmHg 55%
    22:00 +3°C° 0 mm 2 mps 752 mmHg 56%
    23:00 +4°C° 0 mm 1 mps 752 mmHg 58%

    22 January, Tuesday

    Time Temperature Precipitation Wind Pressure Humidity
    00:00 +3°C° 0 mm 1 mps 752 mmHg 60%
    01:00 +2°C° 0 mm 1 mps 752 mmHg 62%
    02:00 +2°C° 0 mm 1 mps 751 mmHg 64%
    03:00 +1°C° 0 mm 1 mps 751 mmHg 66%
    04:00 +1°C° 0 mm 1 mps 751 mmHg 67%
    05:00 +1°C° 0 mm 1 mps 750 mmHg 69%
    06:00 0°C° 0 mm 1 mps 750 mmHg 70%
    07:00 +1°C° 0 mm 1 mps 750 mmHg 66%
    08:00 +1°C° 0 mm 2 mps 749 mmHg 62%
    09:00 +2°C° 0 mm 2 mps 749 mmHg 58%
    10:00 +4°C° 0 mm 2 mps 748 mmHg 51%
    11:00 +5°C° 0 mm 3 mps 747 mmHg 45%
    12:00 +8°C° 0 mm 3 mps 747 mmHg 38%
    13:00 +8°C° 0 mm 4 mps 745 mmHg 43%
    14:00 +9°C° 0 mm 6 mps 744 mmHg 47%
    15:00 +9°C° 0 mm 7 mps 743 mmHg 52%
    16:00 +9°C° 0 mm 7 mps 743 mmHg 55%
    17:00 +7°C° 0 mm 8 mps 742 mmHg 58%
    18:00 +7°C° 0 mm 8 mps 742 mmHg 62%
    19:00 +6°C° 0 mm 9 mps 741 mmHg 62%
    20:00 +6°C° 0 mm 9 mps 741 mmHg 62%
    21:00 +6°C° 0 mm 10 mps 741 mmHg 62%
    22:00 +5°C° 0 mm 10 mps 740 mmHg 62%
    23:00 +5°C° 0 mm 9 mps 740 mmHg 61%

    23 January, Wednesday

    Time Temperature Precipitation Wind Pressure Humidity
    00:00 +5°C° 0 mm 8 mps 740 mmHg 60%
    01:00 +4°C° 0 mm 8 mps 740 mmHg 60%
    02:00 +4°C° 0 mm 8 mps 739 mmHg 61%
    03:00 +3°C° 0 mm 7 mps 739 mmHg 61%
    04:00 +3°C° 0 mm 7 mps 739 mmHg 62%
    05:00 +2°C° 0 mm 8 mps 738 mmHg 64%
    06:00 +4°C° 0 mm 8 mps 737 mmHg 65%
    07:00 +5°C° 0 mm 10 mps 736 mmHg 63%
    08:00 +5°C° 0 mm 12 mps 735 mmHg 61%
    09:00 +6°C° 0 mm 14 mps 734 mmHg 59%
    10:00 +9°C° 0 mm 15 mps 733 mmHg 54%
    11:00 +11°C° 0 mm 16 mps 732 mmHg 50%
    12:00 +13°C° 0 mm 17 mps 731 mmHg 46%
    13:00 +13°C° 0 mm 17 mps 730 mmHg 48%
    14:00 +13°C° 0 mm 17 mps 729 mmHg 51%
    15:00 +13°C° 0 mm 17 mps 728 mmHg 53%
    16:00 +11°C° 0.1 mm 16 mps 727 mmHg 57%
    17:00 +10°C° 0.1 mm 16 mps 726 mmHg 60%
    18:00 +9°C° 0.1 mm 15 mps 725 mmHg 64%
    19:00 +9°C° 0.1 mm 14 mps 726 mmHg 62%
    20:00 +9°C° 0.1 mm 12 mps 726 mmHg 60%
    21:00 +8°C° 0.1 mm 11 mps 726 mmHg 58%
    22:00 +7°C° 0.1 mm 10 mps 728 mmHg 55%
    23:00 +5°C° 0.1 mm 9 mps 729 mmHg 53%
    Show more